Big Bear City, CA

8:22 PM PST on November 21, 2017 (GMT -0800)
Big Bear City

Weather History for KL35 - May, 2013

Change the Weather History Date:

Sunday, May 5, 2013

  Actual Average (KBUO) Record (KBUO)
Temperature  
Mean Temperature 42 °F -  
Max Temperature 48 °F 73 °F 89 °F (1997)
Min Temperature 37 °F 48 °F 44 °F (2000)
Degree Days  
Heating Degree Days 22    
Moisture  
Dew Point 22 °F    
Average Humidity 47    
Maximum Humidity 81    
Minimum Humidity 22    
Precipitation  
Precipitation 0.00 in - - ()
Sea Level Pressure  
Sea Level Pressure 29.94 in    
Wind  
Wind Speed 8 mph (WSW)    
Max Wind Speed 14 mph    
Max Gust Speed 21 mph    
Visibility 10 miles    
Events      
Averages and records for this station are not official NWS values.
T = Trace of Precipitation, MM = Missing Value Source: NWS Daily Summary

Daily Weather History Graph

Daily Weather History Graph

Search for Another Location

Airport or City:

Trip Planner

Search our weather history database for the weather conditions in past years. The results will help you decide how hot, cold, wet, or windy it might be!

Date:

Astronomy

May. 05, 2013 Rise Set
Actual Time 5:53 AM PDT 7:35 PM PDT
Civil Twilight 5:26 AM PDT 8:02 PM PDT
Nautical Twilight 4:53 AM PDT 8:34 PM PDT
Astronomical Twilight 4:19 AM PDT 9:09 PM PDT
Moon 3:15 AM PDT (5/5) 3:48 PM PDT (5/5)
Length of Visible Light 14h 35m
Length of Day
13h 41m
Waning Crescent, 17% of the Moon is Illuminated
May 5
Waning Crescent
May 9
New
May 17
First Quarter
May 24
Full
May 31
Last Quarter

Hourly Weather History & Observations

Time (PDT) Temp. Windchill Dew Point Humidity Pressure Visibility Wind Dir Wind Speed Gust Speed Precip Events Conditions
12:15 AM 44.6 °F 40.7 °F 14.0 °F 29% 29.94 in 10.0 mi West 6.9 mph - N/A   Clear
12:35 AM 44.6 °F 40.2 °F 12.2 °F 27% 29.94 in 10.0 mi WNW 8.1 mph - N/A   Clear
12:55 AM 44.6 °F 38.8 °F 12.2 °F 27% 29.94 in 10.0 mi WNW 11.5 mph - N/A   Clear
1:15 AM 44.6 °F 39.7 °F 10.4 °F 25% 29.94 in 10.0 mi WNW 9.2 mph - N/A   Clear
1:35 AM 44.6 °F 40.2 °F 10.4 °F 25% 29.93 in 10.0 mi WNW 8.1 mph - N/A   Clear
1:55 AM 44.6 °F 39.7 °F 10.4 °F 25% 29.92 in 10.0 mi West 9.2 mph - N/A   Clear
2:15 AM 44.6 °F 39.7 °F 10.4 °F 25% 29.92 in 10.0 mi West 9.2 mph 19.6 mph N/A   Clear
2:35 AM 44.6 °F 40.2 °F 8.6 °F 23% 29.91 in 10.0 mi WSW 8.1 mph 18.4 mph N/A   Clear
2:55 AM 44.6 °F 39.2 °F 8.6 °F 23% 29.91 in 10.0 mi West 10.4 mph 19.6 mph N/A   Clear
3:15 AM 44.6 °F 39.7 °F 10.4 °F 25% 29.91 in 10.0 mi WSW 9.2 mph 16.1 mph N/A   Clear
3:35 AM 44.6 °F 39.2 °F 12.2 °F 27% 29.91 in 10.0 mi WSW 10.4 mph 18.4 mph N/A   Clear
3:55 AM 44.6 °F 40.7 °F 12.2 °F 27% 29.91 in 10.0 mi WSW 6.9 mph - N/A   Clear
4:15 AM 44.6 °F 40.7 °F 14.0 °F 29% 29.91 in 10.0 mi WSW 6.9 mph - N/A   Clear
4:35 AM 44.6 °F 39.7 °F 14.0 °F 29% 29.91 in 10.0 mi West 9.2 mph - N/A   Clear
4:55 AM 44.6 °F 41.4 °F 14.0 °F 29% 29.91 in 10.0 mi SW 5.8 mph - N/A   Clear
5:15 AM 44.6 °F 42.2 °F 14.0 °F 29% 29.91 in 10.0 mi WSW 4.6 mph - N/A   Clear
5:35 AM 44.6 °F 41.4 °F 15.8 °F 31% 29.90 in 10.0 mi WSW 5.8 mph - N/A   Clear
5:55 AM 44.6 °F 40.7 °F 15.8 °F 31% 29.90 in 10.0 mi West 6.9 mph - N/A   Clear
6:15 AM 44.6 °F 40.2 °F 17.6 °F 34% 29.91 in 10.0 mi West 8.1 mph - N/A   Scattered Clouds
6:35 AM 44.6 °F 39.2 °F 15.8 °F 31% 29.91 in 10.0 mi WNW 10.4 mph 17.3 mph N/A   Mostly Cloudy
6:55 AM 44.6 °F 39.7 °F 14.0 °F 29% 29.92 in 10.0 mi West 9.2 mph - N/A   Scattered Clouds
7:15 AM 44.6 °F 38.1 °F 12.2 °F 27% 29.92 in 10.0 mi West 13.8 mph 20.7 mph N/A   Clear
7:35 AM 46.4 °F 42.4 °F 12.2 °F 25% 29.93 in 10.0 mi West 8.1 mph - N/A   Clear
7:55 AM 46.4 °F 42.9 °F 8.6 °F 22% 29.94 in 10.0 mi WNW 6.9 mph - N/A   Scattered Clouds
8:15 AM 46.4 °F 45.2 °F 8.6 °F 22% 29.94 in 10.0 mi WNW 3.5 mph - N/A   Scattered Clouds
8:35 AM 46.4 °F 43.5 °F 12.2 °F 25% 29.94 in 10.0 mi SW 5.8 mph - N/A   Mostly Cloudy
8:55 AM 46.4 °F 42.4 °F 14.0 °F 27% 29.94 in 10.0 mi SW 8.1 mph - N/A   Overcast
9:15 AM 46.4 °F 41.5 °F 12.2 °F 25% 29.94 in 10.0 mi WSW 10.4 mph 17.3 mph N/A   Overcast
9:35 AM 46.4 °F 41.5 °F 14.0 °F 27% 29.95 in 10.0 mi West 10.4 mph - N/A   Overcast
9:55 AM 46.4 °F 41.9 °F 12.2 °F 25% 29.95 in 10.0 mi West 9.2 mph 17.3 mph N/A   Overcast
10:15 AM 46.4 °F 42.4 °F 12.2 °F 25% 29.95 in 10.0 mi West 8.1 mph - N/A   Overcast
10:35 AM 46.4 °F 42.4 °F 12.2 °F 25% 29.95 in 10.0 mi South 8.1 mph - N/A   Mostly Cloudy
11:15 AM 46.4 °F 41.9 °F 15.8 °F 29% 29.96 in 10.0 mi WSW 9.2 mph - N/A   Overcast
11:35 AM 46.4 °F 41.5 °F 14.0 °F 27% 29.97 in 10.0 mi WSW 10.4 mph 18.4 mph N/A   Overcast
11:55 AM 48.2 °F - 14.0 °F 25% 29.97 in 10.0 mi SW 10.4 mph 17.3 mph N/A   Overcast
12:15 PM 46.4 °F 42.4 °F 23.0 °F 40% 29.96 in 10.0 mi SSW 8.1 mph - N/A   Overcast
12:35 PM 44.6 °F 38.4 °F 32.0 °F 61% 29.98 in 10.0 mi SW 12.7 mph 18.4 mph N/A   Overcast
12:55 PM 44.6 °F 40.2 °F 32.0 °F 61% 29.96 in 10.0 mi SSW 8.1 mph - N/A   Overcast
1:15 PM 44.6 °F 42.2 °F 32.0 °F 61% 29.97 in 10.0 mi West 4.6 mph - N/A   Overcast
1:35 PM 46.4 °F 44.3 °F 32.0 °F 57% 29.96 in 10.0 mi SSW 4.6 mph - N/A   Mostly Cloudy
1:55 PM 48.2 °F - 32.0 °F 54% 29.96 in 10.0 mi South 8.1 mph - N/A   Scattered Clouds
2:15 PM 46.4 °F 42.9 °F 32.0 °F 57% 29.96 in 10.0 mi South 6.9 mph - N/A   Mostly Cloudy
2:35 PM 44.6 °F 40.2 °F 32.0 °F 61% 29.96 in 10.0 mi WSW 8.1 mph - N/A   Mostly Cloudy
2:55 PM 44.6 °F 39.7 °F 32.0 °F 61% 29.97 in 10.0 mi WSW 9.2 mph - N/A   Mostly Cloudy
3:15 PM 44.6 °F - 32.0 °F 61% 29.96 in 10.0 mi Calm Calm - N/A   Overcast
3:35 PM 44.6 °F 40.7 °F 30.2 °F 57% 29.95 in 10.0 mi West 6.9 mph - N/A   Overcast
3:55 PM 46.4 °F 44.3 °F 30.2 °F 53% 29.95 in 10.0 mi SW 4.6 mph - N/A   Mostly Cloudy
4:15 PM 46.4 °F 42.9 °F 26.6 °F 46% 29.94 in 10.0 mi SW 6.9 mph 17.3 mph N/A   Scattered Clouds
4:35 PM 44.6 °F 40.2 °F 32.0 °F 61% 29.95 in 10.0 mi SSW 8.1 mph 16.1 mph N/A   Clear
5:15 PM 42.8 °F 39.3 °F 32.0 °F 66% 29.95 in 10.0 mi SW 5.8 mph - N/A   Scattered Clouds
5:35 PM 42.8 °F 40.1 °F 32.0 °F 66% 29.96 in 10.0 mi SW 4.6 mph - N/A   Mostly Cloudy
5:55 PM 41.0 °F 35.2 °F 32.0 °F 70% 29.95 in 10.0 mi WSW 9.2 mph 17.3 mph N/A   Mostly Cloudy
6:15 PM 41.0 °F 35.8 °F 32.0 °F 70% 29.96 in 10.0 mi WSW 8.1 mph - N/A   Mostly Cloudy
6:35 PM 41.0 °F 35.8 °F 32.0 °F 70% 29.96 in 10.0 mi SSW 8.1 mph - N/A   Overcast
6:55 PM 41.0 °F 38.0 °F 32.0 °F 70% 29.95 in 10.0 mi WSW 4.6 mph - N/A   Mostly Cloudy
7:35 PM 37.4 °F 33.8 °F 32.0 °F 81% 29.95 in 10.0 mi SW 4.6 mph - N/A   Scattered Clouds
7:55 PM 37.4 °F 32.1 °F 32.0 °F 81% 29.96 in 10.0 mi WSW 6.9 mph - N/A   Scattered Clouds
8:15 PM 37.4 °F 31.4 °F 32.0 °F 81% 29.96 in 10.0 mi WSW 8.1 mph - N/A   Mostly Cloudy
8:35 PM 37.4 °F 32.1 °F 32.0 °F 81% 29.97 in 10.0 mi West 6.9 mph - N/A   Scattered Clouds
8:55 PM 37.4 °F 33.8 °F 32.0 °F 81% 29.97 in 10.0 mi WSW 4.6 mph - N/A   Clear
9:15 PM 37.4 °F 32.8 °F 32.0 °F 81% 29.97 in 10.0 mi West 5.8 mph - N/A   Scattered Clouds
9:35 PM 37.4 °F 31.4 °F 32.0 °F 81% 29.97 in 10.0 mi West 8.1 mph - N/A   Scattered Clouds
9:55 PM 37.4 °F 31.4 °F 32.0 °F 81% 29.97 in 10.0 mi West 8.1 mph - N/A   Scattered Clouds
10:15 PM 37.4 °F 32.1 °F 32.0 °F 81% 29.96 in 10.0 mi West 6.9 mph - N/A   Scattered Clouds
10:35 PM 37.4 °F 32.8 °F 32.0 °F 81% 29.96 in 10.0 mi SW 5.8 mph - N/A   Clear
10:55 PM 37.4 °F 32.1 °F 32.0 °F 81% 29.96 in 10.0 mi SW 6.9 mph - N/A   Clear
11:35 PM 41.0 °F 37.1 °F 33.8 °F 76% 29.96 in 10.0 mi SW 5.8 mph 17.3 mph N/A   Scattered Clouds
11:55 PM 39.2 °F 32.5 °F 33.8 °F 81% 29.96 in 10.0 mi West 10.4 mph - N/A   Clear